Location: *
(52.6001°N, 8.9772°W)
Time: 20:59:33
(UTC+00:00)

Daily predictions for brighter satellites

Satellite Brightness Start Highest point End
(mag) Time Altitude Azimuth Time Altitude Azimuth Time Altitude Azimuth
COSMOS 2428 3.5 16:53:06 10° S 16:58:09 34° ESE 17:03:15 10° NE
Cosmos 1634 Rocket 4.0 16:54:00 10° N 17:00:14 88° E 17:06:26 10° S
Meteor 1-28 Rocket 3.2 16:57:00 10° NNE 17:00:47 90° ENE 17:04:33 10° SSW
USA 267 3.5 16:54:14 10° SE 17:00:47 77° SSW 17:07:23 10° WNW
NOSS 3-4 (A) 3.7 16:56:16 10° SSW 17:02:10 59° SE 17:08:30 10° NE
NOSS 3-4 (C) 3.7 16:56:22 10° SSW 17:02:17 59° SE 17:08:36 10° NE
CZ-4C R/B 4.4 17:01:15 10° N 17:04:09 33° WNW 17:07:02 10° SW
Cosmos 332 Rocket 4.4 16:59:32 10° NNW 17:04:22 63° WSW 17:09:08 10° S
Lacrosse 5 rocket 3.1 17:04:36 10° S 17:07:49 21° SE 17:10:54 10° E
Genesis I 4.2 17:05:37 10° NNW 17:09:03 27° NNE 17:12:26 10° E
FENGYUN 3A 4.1 17:07:34 10° S 17:12:59 70° WSW 17:18:25 10° NNW
NOSS 2-2 (C) 3.9 17:09:47 10° WSW 17:13:29 53° NW 17:17:58 10° NE
CZ-4 R/B 3.0 17:11:56 10° E 17:13:44 13° NE 17:15:34 10° NNE
Cosmos 2333 4.4 17:09:26 10° SSW 17:15:04 62° ESE 17:20:47 10° NE
SL-4 R/B 2.9 17:11:54 10° SW 17:15:17 35° SSE 17:18:55 10° E
CZ-4B R/B 3.4 17:11:12 10° SSE 17:16:32 77° WSW 17:22:01 10° NNW
NOSS 7 (D) 4.2 17:13:51 10° NW 17:16:39 47° NE 17:19:43 10° ESE
Cosmos 1666 4.1 17:14:04 10° NNE 17:16:40 18° ENE 17:19:16 10° ESE
Cosmos 1606 3.9 17:13:26 10° SSW 17:17:03 43° WNW 17:20:44 10° N
Cosmos 2322 3.7 17:14:42 10° SSW 17:20:24 77° ESE 17:26:07 10° NNE
H-2A R/B 4.0 17:17:43 10° N 17:21:00 23° WNW 17:24:17 10° WSW
Cosmos 494 Rocket 4.1 17:17:33 10° SSW 17:22:50 88° WNW 17:28:08 10° NNE
Cosmos 2278 Rocket 2.2 17:18:32 10° NNW 17:24:13 71° NE 17:29:52 10° SE
YAOGAN 1 4.1 17:22:25 10° E 17:25:03 16° NE 17:27:41 10° NNE
Cosmos 1782 2.9 17:22:11 10° SSW 17:26:11 82° W 17:30:12 10° N
Cosmos 1346 Rocket 3.4 17:22:43 10° NNW 17:26:39 62° W 17:30:35 10° S
Cosmos 2344 4.4 17:22:36 10° WNW 17:30:27 45° N 17:40:04 12° E
Meteor 2-6 Rocket 4.2 17:26:05 10° S 17:31:22 60° E 17:36:44 10° NNE
Cosmos 2360 Rocket 2.6 17:26:07 10° SW 17:31:45 62° NW 17:37:24 10° NNE
Cosmos 1689 Rocket 2.3 17:29:35 10° N 17:32:38 73° WNW 17:35:40 10° SSW
Cosmos 1733 Rocket 3.0 17:28:51 10° N 17:33:12 62° ENE 17:37:34 10° SSE
Cosmos 1315 Rocket 2.8 17:29:57 10° SSW 17:33:58 89° WNW 17:38:03 10° NNE
NOSS 2-2 (E) 4.5 17:31:52 10° W 17:35:33 38° NNW 17:39:42 12° NE
Cosmos 2369 Rocket 3.5 17:33:07 10° NNW 17:37:11 20° NNE 17:39:54 14° ENE
Helios 1A Rocket 4.1 17:35:10 10° S 17:39:09 47° W 17:43:07 10° NNW
Cosmos 1980 Rocket 4.2 17:35:13 10° WNW 17:39:10 19° NNW 17:43:07 10° NNE
Cosmos 1743 4.5 17:36:55 10° NNE 17:38:23 14° NE 17:38:23 14° NE
ATLAS 2AS CENTAUR R/B 3.2 17:31:51 10° SW 17:39:54 78° NW 17:47:23 12° NE
Cosmos 1269 Rocket 4.2 17:34:57 10° SSW 17:40:16 78° WNW 17:45:37 10° NNE
SL-16 R/B 3.8 17:40:42 10° SE 17:43:21 13° E 17:44:01 13° E
SeaSat 1 3.9 17:45:12 16° NE 17:46:51 18° NNE 17:50:07 10° N
COSMOS 2455 3.9 17:41:30 10° WSW 17:47:08 39° NW 17:52:41 10° NNE
NOAA 12 4.1 17:43:06 10° SE 17:48:18 58° ENE 17:53:30 10° N
Cosmos 2333 Rocket 2.2 17:43:42 10° SSW 17:49:26 78° ESE 17:54:57 11° NNE
BREEZE-M DEB (TANK) 3.9 17:44:48 10° WSW 17:50:08 34° S 17:52:49 11° ESE
Meteor 1-10 Rocket 4.1 17:45:05 10° S 17:50:36 75° E 17:56:15 10° NNE
Cosmos 2237 Rocket 2.8 17:48:44 10° S 17:53:55 37° ESE 17:57:41 17° NE
Cosmos 1812 2.8 17:50:48 10° S 17:54:34 53° E 17:58:14 11° NNE
Cosmos 2322 Rocket 3.7 17:53:14 10° W 17:58:06 29° NW 18:03:02 10° NNE
Cosmos 921 Rocket 3.6 17:55:42 10° N 17:59:36 34° ENE 18:03:32 10° SE
Meteor 1-11 Rocket 4.0 17:56:02 10° NNW 18:02:03 83° W 18:08:01 10° S
Cosmos 1782 Rocket 4.2 17:58:55 10° N 18:02:53 32° ENE 18:06:48 10° SE
CORIOLIS 4.2 17:59:56 10° SSE 18:05:24 85° WSW 18:10:54 10° NNW
NOSS 0 Rocket 4.1 17:59:22 10° S 18:05:24 55° ESE 18:10:05 17° NE
SL-16 R/B 3.9 18:01:12 10° W 18:05:51 25° NW 18:10:32 10° NNE
Cosmos 2251 Rocket 3.6 18:01:31 10° S 18:06:44 60° ESE 18:10:48 17° NE
USA 215 3.3 18:02:28 19° ENE 18:07:26 86° SSE 18:14:00 10° WSW
Cosmos 2219 Rocket 2.2 18:02:16 10° SSW 18:07:54 83° WNW 18:12:51 14° NNE
Cosmos 1500 3.5 18:04:20 10° NNW 18:08:06 66° W 18:11:49 10° S
Meteor 1-27 Rocket 3.7 18:03:55 10° S 18:09:37 68° E 18:15:29 10° NNE
YAOGAN 6 2.8 18:06:45 10° SE 18:10:08 44° ENE 18:13:35 10° N
RESURS DK-1 2.3 18:07:46 10° SSW 18:11:55 88° NW 18:14:31 22° NNE
ISS -1.3 18:11:27 10° W 18:14:05 21° SSW 18:16:42 10° SSE
Cosmos 1862 Rocket 3.4 18:10:34 10° S 18:14:55 82° E 18:19:21 10° NNE
Okean O Rocket 4.2 18:12:14 10° SW 18:15:42 23° W 18:19:12 10° NW
Cosmos 1703 Rocket 4.1 18:13:49 10° SSE 18:17:55 37° E 18:19:20 29° NE
Cosmos 1943 Rocket 2.9 18:14:33 10° NNW 18:19:37 32° NE 18:21:11 28° ENE
ATLAS 5 CENTAUR R/B 2.6 18:19:14 10° S 18:20:18 19° SSE 18:20:18 19° SSE
STARLINK-67 2.3 18:18:52 10° W 18:21:39 84° N 18:21:49 76° ENE
SMAP 4.0 18:17:09 10° S 18:21:41 51° W 18:26:16 10° NNW
Cosmos 2242 Rocket 3.6 18:17:38 10° S 18:22:09 65° E 18:26:00 14° NNE
Envisat 2.9 18:17:04 10° SSE 18:22:10 88° ENE 18:27:17 10° NNW
Cosmos 1092 Rocket 4.0 18:17:42 10° S 18:23:53 59° E 18:30:01 10° NNE
Cosmos 1980 3.7 18:19:02 10° SSW 18:24:35 63° ESE 18:27:59 24° NE
Cosmos 1441 Rocket 3.2 18:20:48 10° N 18:24:37 56° ENE 18:28:21 10° SSE
H-2A R/B 3.9 18:21:31 10° S 18:25:04 44° W 18:28:37 10° NNW
Cosmos 2297 3.6 18:21:16 10° NNW 18:27:00 71° NE 18:32:40 10° SE
Exosat Rocket 3.4 18:22:20 10° SSW 18:27:31 82° ESE 18:30:49 22° NNE
CZ-4B R/B 4.4 18:26:28 10° NNW 18:28:21 14° WNW 18:30:14 10° W
Cosmos 1536 3.3 18:26:25 10° NNW 18:30:25 61° W 18:34:22 10° S
CSL-04 Rocket 3.6 18:25:28 10° SE 18:30:37 56° ENE 18:35:49 10° N
Okean-O 3.0 18:27:20 10° S 18:31:44 67° WSW 18:36:11 10° NNW
Cosmos 407 Rocket 4.4 18:27:36 10° SSE 18:31:31 28° ESE 18:31:31 28° ESE
COBE Rocket 3.9 18:28:10 10° N 18:32:49 74° WNW 18:37:28 10° SSW
STARLINK-46 3.3 18:35:11 10° WSW 18:37:16 47° SW 18:37:16 47° SW
Cosmos 1867 3.6 18:32:49 10° NW 18:38:17 62° NE 18:40:36 34° ESE
NOSS 3-1 (C) 4.2 18:33:12 10° NW 18:39:54 48° NNE 18:43:13 32° E
Cosmos 1263 4.4 18:38:48 10° S 18:41:18 58° S 18:41:18 58° S
COSMOS 2428 3.3 18:36:40 10° SW 18:42:14 54° NW 18:46:23 18° NNE
Cosmos 292 Rocket 4.2 18:39:13 10° NNW 18:44:03 63° WSW 18:48:50 10° S
Lacrosse 4 Rocket 3.7 18:42:47 10° N 18:43:39 12° N 18:43:39 12° N
CSL-04 Debris 4.0 18:40:15 10° SSE 18:45:41 74° ENE 18:51:08 10° NNW
Cosmos 1908 Rocket 4.0 18:42:01 10° NNW 18:46:23 63° W 18:50:42 10° S
Lacrosse 5 rocket 1.1 18:42:19 10° WSW 18:46:34 81° SSE 18:47:04 66° E
Genesis I 3.4 18:43:05 10° NW 18:46:59 67° SW 18:48:34 33° SSE
USA 229 DEB 4.0 18:41:16 10° NW 18:48:09 51° NNE 18:50:46 36° E
CZ-4 R/B 1.2 18:44:19 10° SSE 18:48:13 88° WSW 18:52:06 10° NNW
USA 229 4.0 18:41:23 10° NW 18:48:15 51° NNE 18:50:50 36° E
COSMO-SKYMED 1 2.4 18:48:38 50° NE 18:49:37 68° ESE 18:53:56 10° S
S3M 4.1 18:45:22 10° N 18:51:26 49° ENE 18:56:42 13° SE
Cosmos 1666 3.5 18:48:56 10° NNW 18:52:34 49° W 18:56:11 10° S
NOSS 3-4 (A) 4.1 18:47:19 10° WSW 18:53:16 49° NNW 18:56:36 27° NNE
NOSS 3-1 (A) 4.3 18:46:44 10° NW 18:53:19 45° NNE 18:55:37 36° ENE
NOSS 3-4 (C) 4.1 18:47:25 10° WSW 18:53:23 49° NNW 18:56:42 27° NNE
SL-4 R/B 1.8 18:50:47 10° WSW 18:54:37 75° S 18:54:45 74° SSE
Meteor 2-9 Rocket 4.3 18:51:48 10° N 18:57:36 56° ENE 19:00:31 29° SE
Aureole 1 Rocket 4.1 18:55:24 10° SSW 18:56:34 22° SSW 18:56:34 22° SSW
YAOGAN 1 2.5 18:56:15 10° SSE 19:00:34 85° WSW 19:04:56 10° NNW
Cosmos 1553 Rocket 3.9 18:58:48 10° N 19:05:11 74° ENE 19:11:35 10° SSE
Ariane Rocket 3.5 19:06:32 42° NNE 19:06:32 42° NNE 19:10:13 10° N
Cosmos 1428 Rocket 4.3 19:00:44 10° S 19:06:53 75° E 19:13:04 10° NNE
NOAA 11 4.0 19:01:52 10° SSE 19:07:20 82° ENE 19:12:50 10° NNW
Cosmos 2278 Rocket 4.4 19:03:18 10° NW 19:07:49 25° WSW 19:12:18 10° SSW
Okean 1-7 2.9 19:05:26 10° S 19:09:47 87° W 19:09:54 84° NNW
Cosmos 1743 4.3 19:11:39 10° NNW 19:13:36 28° NNW 19:13:36 28° NNW
Cosmos 2360 Rocket 4.2 19:12:47 10° WNW 19:16:56 20° NNW 19:19:56 14° N
Meteor 1-12 Rocket 4.5 19:12:23 10° N 19:17:19 52° NE 19:17:19 52° NE
BREEZE-M R/B 3.7 19:14:13 10° W 19:17:53 40° SW 19:17:53 40° SW
Cosmos 2369 Rocket 2.3 19:16:47 10° NNW 19:21:43 57° NNE 19:21:43 57° NNE
SeaSat 1 3.2 19:25:00 42° N 19:25:00 42° N 19:28:26 10° NNW
Cosmos 489 Rocket 4.4 19:17:17 10° NNW 19:23:42 87° WSW 19:27:13 29° SSE
Cosmos 2026 Rocket 4.0 19:18:30 10° SSW 19:24:34 77° WNW 19:30:41 10° N
Cosmos 1980 Rocket 4.4 19:23:30 10° NNW 19:25:40 12° N 19:26:11 12° N
SL-16 R/B 2.2 19:20:47 10° SSW 19:25:56 65° SSE 19:25:56 65° SSE
ATLAS 2AS CENTAUR R/B 3.8 19:24:29 10° W 19:32:02 42° NNW 19:34:49 32° NNE
Cosmos 2333 Rocket 3.8 19:29:20 10° W 19:34:20 29° NW 19:36:58 21° N
Cosmos 2237 Rocket 2.9 19:32:21 10° SW 19:37:53 50° NW 19:39:32 39° N
Cosmos 2322 Rocket 4.4 19:41:29 10° NW 19:44:10 13° NNW 19:45:24 13° N
IRS-1A Rocket 4.3 19:44:09 86° SSW 19:44:15 87° WSW 19:50:14 10° NNW
Cosmos 2344 4.2 19:37:31 10° NW 19:46:34 76° NE 19:50:07 50° ESE
USA 215 3.3 19:49:49 61° NNE 19:50:21 63° N 19:56:48 10° W
SL-16 R/B 4.5 19:49:41 10° NW 19:52:08 13° N 19:52:51 12° N
Cosmos 2219 Rocket 4.0 19:48:10 10° W 19:52:43 24° NW 19:54:35 21° N
Cosmos 1655 Rocket 4.2 19:46:34 10° S 19:51:30 58° S 19:51:30 58° S
Cosmos 1943 Rocket 2.8 19:58:12 10° NW 20:02:45 54° WNW 20:02:45 54° WNW
Lacrosse 5 rocket 4.3 20:22:00 10° W 20:22:43 14° W 20:22:43 14° W
NOSS 3-1 (C) 4.1 20:24:06 10° NW 20:30:38 70° W 20:30:38 70° W
USA 229 DEB 4.3 20:32:22 10° NW 20:38:13 57° W 20:38:13 57° W
USA 229 4.3 20:32:29 10° NW 20:38:19 57° W 20:38:19 57° W
NOSS 3-1 (A) 4.4 20:37:42 10° NW 20:43:05 56° NW 20:43:05 56° NW
Cosmos 2369 Rocket 4.4 21:01:18 10° NW 21:03:32 21° WNW 21:03:32 21° WNW
ATLAS 2AS CENTAUR R/B 4.4 21:17:31 10° WNW 21:22:15 31° NNW 21:22:15 31° NNW
